Vorticity
nan nan nan nan nan nan nan nan nan nan nan nan nan nan nan nan nan nan nan nan nan nan nan nan nan nan nan nan nan nan nan nan nan nan nan nan nan nan nan nan nan nan nan nan nan nan nan nan nan
nan 4 6 8 8 4 5 8 6 4 -1 6 11 7 6 5 6 9 10 12 11 7 8 7 6 6 7 9 6 5 5 6 5 4 4 4 5 6 5 5 5 9 12 7 7 8 5 4 nan
nan 7 9 6 6 5 6 7 7 6 7 9 8 6 6 7 10 6 10 18 9 5 7 8 6 6 7 7 5 5 6 5 3 4 5 4 5 6 6 5 8 9 13 12 11 9 4 5 nan
nan 5 8 10 3 7 5 6 9 4 8 5 6 6 7 9 9 13 16 11 6 6 7 7 7 7 8 5 4 6 4 4 6 4 4 5 6 6 7 3 6 11 8 11 10 7 4 6 nan
nan 9 7 6 5 6 6 6 5 4 6 4 6 9 7 7 13 15 9 7 6 5 8 7 7 5 5 6 6 3 5 6 6 5 5 5 6 6 5 5 5 5 5 6 6 4 5 6 nan
nan 9 9 8 2 4 7 8 5 6 4 4 7 8 8 7 12 11 7 7 6 5 6 6 5 5 5 5 5 6 6 8 7 5 5 6 7 7 6 6 5 1 3 4 4 5 5 6 nan
nan 8 9 11 8 3 8 8 6 6 3 9 8 6 8 9 10 10 8 7 6 6 5 6 5 4 4 6 7 7 6 8 6 6 7 7 8 8 7 6 5 5 3 3 5 5 6 7 nan
nan 9 9 6 13 8 11 6 9 9 6 9 8 6 4 11 12 8 9 7 4 6 6 5 6 6 6 6 6 6 7 7 8 6 7 7 6 7 7 7 7 7 5 5 6 6 7 7 nan
nan 8 8 9 6 8 9 7 5 8 10 7 7 5 12 14 7 6 6 5 5 7 7 5 6 5 6 6 6 8 6 6 7 6 5 4 5 7 5 5 8 7 7 6 6 7 7 4 nan
nan 8 8 7 7 9 8 7 7 6 5 7 7 5 15 15 5 5 5 4 5 6 7 6 6 6 5 6 8 7 6 7 6 6 4 4 6 6 6 6 6 6 6 6 7 7 4 3 nan
nan 7 9 8 7 9 7 7 7 6 6 10 7 7 11 10 7 5 4 5 7 6 7 7 7 7 5 5 5 6 7 8 9 8 6 5 5 6 6 6 6 6 5 6 6 5 5 6 nan
nan 8 5 7 7 7 7 5 7 5 5 7 4 6 10 10 8 8 6 7 6 6 6 6 7 7 5 5 7 7 6 7 8 9 6 4 6 6 6 6 7 6 7 7 6 6 8 7 nan
nan 6 6 5 5 6 7 6 8 5 6 2 4 4 6 9 9 8 8 9 8 7 6 8 7 7 6 5 5 7 7 7 7 8 6 5 6 6 6 6 6 7 7 7 7 7 7 8 nan
nan 7 4 5 6 6 8 6 5 6 11 7 5 5 7 5 6 7 11 10 7 6 7 7 7 8 7 6 5 5 7 7 7 7 7 6 5 6 6 7 7 7 7 7 8 8 7 8 nan
nan 11 12 8 6 7 10 7 9 10 6 7 5 5 6 6 6 5 6 9 10 9 9 6 6 9 9 6 6 7 7 7 7 9 9 6 5 6 6 7 7 7 8 7 7 7 7 7 nan
nan 5 11 15 8 5 4 8 12 17 10 4 4 7 8 8 5 7 5 6 7 10 11 8 8 7 8 5 6 6 7 7 8 8 10 9 6 5 5 6 7 7 7 7 7 7 7 7 nan
nan 9 4 8 14 12 2 2 4 5 10 8 8 8 8 9 8 8 8 8 7 9 10 11 9 6 7 7 6 9 8 6 8 8 10 11 8 6 5 6 8 8 7 8 7 7 8 7 nan
nan 6 13 8 5 9 9 4 1 4 8 6 6 9 9 9 7 9 12 10 9 10 9 9 11 10 7 8 8 8 8 9 8 8 9 9 10 9 6 7 8 7 7 7 8 7 6 9 nan
nan 7 6 10 9 10 9 8 6 7 7 10 7 8 9 9 11 10 9 10 11 8 11 11 10 9 7 7 7 8 7 7 7 11 11 7 8 9 6 7 10 8 8 8 6 6 7 8 nan
nan 5 3 7 10 8 7 11 14 12 11 13 12 11 12 11 11 12 12 11 10 8 8 10 11 11 7 6 7 9 10 9 10 10 12 11 9 7 7 7 9 8 8 10 8 3 4 10 nan
nan 8 7 9 7 5 8 11 13 13 13 15 17 15 11 8 10 15 17 14 12 12 10 10 10 10 11 6 5 5 7 10 11 9 11 12 10 8 7 6 7 9 7 9 9 8 4 6 nan
nan 8 11 8 9 6 8 12 8 7 9 9 7 7 7 8 11 12 14 15 14 13 13 12 12 12 12 10 8 7 3 6 6 7 7 11 13 9 8 8 7 6 8 10 8 8 6 6 nan
nan 10 10 8 8 9 9 11 7 7 5 4 4 5 6 9 9 9 9 11 13 13 14 15 14 12 12 13 10 8 6 6 9 11 10 8 11 13 10 9 9 6 7 10 9 7 6 4 nan
nan 2 7 9 8 8 10 8 8 10 5 6 5 5 6 8 11 11 10 8 8 10 11 12 14 14 14 14 13 9 7 6 6 8 10 8 10 14 12 10 9 8 9 10 9 9 7 5 nan
nan 6 5 8 11 8 9 9 9 6 9 10 4 4 7 8 7 8 9 9 8 9 10 9 9 10 13 14 14 13 11 12 10 6 9 9 7 11 14 11 8 9 10 10 11 11 10 8 nan
nan 10 10 12 7 8 9 8 8 10 13 6 5 8 8 8 7 7 8 8 7 7 8 9 9 10 10 11 12 13 13 12 12 10 9 10 8 10 12 12 12 12 10 9 8 8 11 10 nan
nan 10 10 6 9 10 8 6 11 13 8 6 8 9 8 8 8 8 9 10 8 7 7 9 10 12 11 10 10 11 13 12 10 11 9 10 11 14 14 12 13 14 13 11 8 9 11 10 nan
nan 9 6 8 11 9 9 12 12 10 6 6 6 7 9 8 8 9 9 11 10 9 9 9 11 11 11 12 12 11 11 13 14 14 13 12 13 13 13 12 12 12 12 12 10 11 11 10 nan
nan 6 10 12 9 12 9 11 13 9 4 4 7 8 9 7 9 9 9 11 13 11 10 9 8 10 11 12 12 12 12 12 14 14 16 16 13 12 12 11 11 10 11 10 10 12 12 9 nan
nan nan nan nan nan nan nan nan nan nan nan nan nan nan nan nan nan nan nan nan nan nan nan nan nan nan nan nan nan nan nan nan nan nan nan nan nan nan nan nan nan nan nan nan nan nan nan nan nan
CAPE
16 0 0 0 0 0 0 0 0 0 0 0 0 0 0 0 0 0 8 444 277 558 1329 1703 2270 2266 2341 2103 1815 1700 1525 1090 488 222 61 69 50 53 47 33 5 1 1 0 75 66 62 43 5
0 0 0 0 0 0 0 0 0 0 0 0 0 0 0 0 3 73 315 427 566 1084 1393 1552 2167 2273 2345 2184 1883 1715 1404 975 505 186 58 47 16 22 49 3 0 0 13 16 83 73 73 34 0
0 0 0 0 0 0 0 0 0 0 0 0 0 0 0 0 4 126 147 621 891 1373 1390 1634 2152 2315 2274 2088 1879 1725 1255 810 425 166 90 8 1 0 0 0 0 13 37 56 60 135 56 6 0
0 0 0 0 0 0 0 0 0 0 0 0 0 0 0 0 1 102 639 825 1152 1351 1349 1783 2152 2263 2074 1781 1724 1442 1043 751 350 170 95 28 2 0 3 1 62 159 143 168 143 104 5 0 0
0 0 0 0 0 0 0 0 0 0 0 0 0 0 0 0 284 589 987 984 1060 1156 1296 1549 2009 1949 1630 1440 1197 1018 943 895 495 130 74 7 3 2 5 1 57 112 103 70 29 2 1 0 0
0 0 0 0 0 0 0 0 0 0 0 0 0 0 0 161 486 618 857 981 889 926 1425 1403 1535 1536 1465 1336 1120 993 1029 1027 585 205 90 25 3 0 0 9 9 19 40 41 26 6 4 0 0
0 0 0 0 0 0 0 0 0 0 0 0 0 0 0 70 547 555 559 847 798 770 1264 1270 1146 1001 1022 948 875 993 991 1084 714 435 253 115 26 0 0 2 41 28 7 13 11 2 0 0 0
0 0 0 0 0 0 0 0 0 0 0 0 0 0 0 0 610 527 583 787 629 749 1067 1044 912 761 665 497 551 452 397 410 630 378 186 78 7 10 0 0 35 51 24 1 0 0 0 3 0
0 0 0 0 0 0 0 0 0 0 0 0 0 0 0 50 603 592 571 492 665 647 841 884 824 717 581 339 440 358 277 233 287 187 80 24 2 0 0 0 5 42 26 0 0 0 22 3 0
0 0 0 0 0 0 0 0 0 0 0 0 0 0 53 392 534 567 484 596 662 536 534 635 648 625 449 297 318 310 257 216 194 171 120 89 43 1 0 0 27 118 63 40 11 53 0 0 0
0 0 0 0 0 0 0 0 0 0 0 0 0 0 35 373 541 548 502 482 510 510 612 499 401 473 390 291 193 159 204 174 191 144 115 107 91 92 22 4 37 82 34 61 108 95 0 0 0
0 0 0 0 0 0 0 0 0 0 0 0 0 0 0 255 411 400 554 589 546 527 479 455 330 355 367 210 154 115 118 105 117 146 95 106 106 134 122 36 25 55 68 82 111 7 0 0 0
0 0 0 0 0 0 0 0 0 0 0 0 0 0 0 0 0 101 231 403 446 521 496 495 405 325 351 205 160 110 76 85 79 107 100 90 95 115 139 115 36 29 40 20 38 0 0 0 0
0 0 0 0 0 0 0 0 0 0 0 0 0 0 0 0 0 0 0 318 684 569 411 471 426 314 309 228 170 119 67 58 71 70 82 58 51 66 88 112 75 16 3 0 0 0 0 0 0
0 0 0 0 0 0 0 0 0 0 0 0 0 0 0 0 0 0 0 0 143 769 830 597 447 314 297 266 189 166 115 44 51 53 47 42 39 29 27 56 77 39 0 0 0 0 0 0 0
0 1 0 0 0 0 0 0 0 0 0 0 0 0 0 0 0 0 0 0 0 0 594 801 617 379 258 286 236 239 161 115 59 24 15 14 15 16 20 30 66 50 0 0 0 0 0 0 0
2 0 0 0 0 0 0 0 0 0 0 0 0 0 0 0 0 0 0 0 0 0 0 312 734 766 368 292 284 249 154 187 196 56 13 0 0 0 0 17 46 32 0 0 0 0 0 0 0
0 0 0 0 0 0 0 0 0 0 0 0 0 0 0 0 0 0 0 0 0 0 0 0 247 771 716 373 173 237 202 152 277 238 94 5 0 0 0 0 7 0 0 0 0 0 0 0 0
0 0 0 0 0 0 0 0 0 0 0 0 0 0 0 0 0 0 0 0 0 0 0 0 0 99 810 537 281 236 313 316 215 250 160 36 3 0 0 0 0 0 0 0 0 0 0 0 0
0 0 0 0 0 0 0 0 0 0 0 0 0 0 0 0 0 0 0 0 0 0 0 0 0 0 328 583 440 362 487 372 397 297 134 119 9 0 0 0 0 0 0 0 0 0 0 0 0
0 0 0 0 0 0 0 0 0 0 0 0 0 0 0 0 0 0 0 0 0 0 0 0 0 0 0 471 588 225 271 62 415 289 256 132 67 4 1 0 0 0 0 0 0 0 0 0 0
4 0 0 0 0 0 0 0 0 0 0 0 0 0 0 0 0 0 0 0 0 0 0 0 0 0 0 14 431 401 283 384 407 437 484 231 28 15 0 0 0 0 0 0 0 0 0 0 0
0 0 0 0 0 0 0 0 0 0 0 0 0 0 0 0 0 0 0 0 0 0 0 0 0 0 0 0 7 365 349 427 536 454 380 291 15 1 0 0 0 0 0 0 0 0 0 0 0
0 0 0 0 0 0 0 0 0 0 0 0 0 0 0 0 0 0 0 0 0 0 0 0 0 0 0 0 0 115 321 409 139 125 348 372 37 0 0 0 0 0 0 0 0 0 0 0 0
0 0 0 0 0 0 0 0 0 0 0 0 0 0 0 0 0 0 0 0 0 0 0 0 0 0 0 0 0 0 60 239 55 178 112 273 0 0 0 0 1 0 0 0 0 0 0 0 0
0 0 0 0 0 0 0 0 0 0 0 0 0 0 0 0 0 0 0 0 0 0 0 0 0 0 0 0 0 0 0 0 15 18 24 59 22 1 1 0 1 0 0 0 0 0 0 0 0
0 0 0 0 0 0 0 0 0 0 0 0 0 0 0 0 0 0 0 0 0 0 0 0 0 0 0 0 0 0 0 0 0 0 0 6 0 0 1 0 0 0 0 0 0 0 0 0 0
0 0 0 0 0 0 0 0 0 0 0 0 0 0 0 0 0 0 0 0 0 0 0 0 0 0 0 0 0 0 0 0 0 0 0 0 0 0 0 0 0 0 0 0 0 0 0 0 0
0 0 0 0 0 0 0 0 0 0 0 0 0 0 0 0 0 0 0 0 0 0 0 0 0 0 0 0 0 0 0 0 0 1 0 0 0 0 0 0 0 0 0 0 0 0 0 0 0
0 0 0 0 0 0 0 0 0 0 0 0 0 0 0 0 0 0 0 0 0 0 0 0 0 0 0 0 0 0 0 0 0 0 0 0 0 0 0 0 0 0 0 0 0 0 0 0 0